User: anonymous   Login
Location: Sevilla
(37.3933°N, 5.9839°W)
Time: 00:13:29
(UTC+02:00)
Language:

Transit 2A - Orbit

View from above orbital plane
View from above orbital plane
View from above satellite
View from above satellite

Ground track
Ground track

The orbit data is extracted from the following two-line orbital elements,

1    45U 60007A   24175.18969446  .00000696  00000-0  19522-3 0  9991
2    45  66.6934 113.7414 0256626 326.1055  32.3867 14.34761579333000
Epoch (UTC): 23 June 2024 04:33:09
Eccentricity: 0.0256626
inclination: 66.6934°
perigee height: 592 km
apogee height: 959 km
right ascension of ascending node: 113.7414°
argument of perigee: 326.1055°
revolutions per day: 14.34761579
mean anomaly at epoch: 32.3867°
orbit number at epoch: 33300

The dashed part of the orbit path shows where the satellite is in the earth's shadow,  

DLR